Location: *
(51.0333°S, 178.4667°E)
Time: 14:08:14
(UTC+00:00)

BREEZE-M DEB (TANK) - Visible Passes

Search period start: 18 February 2020 00:00
Search period end: 28 February 2020 00:00
Orbit: 270 x 20464 km, 49.3° (Epoch: 17 February)

Date Brightness Start Highest point End Pass type
(mag) Time Alt. Az. Time Alt. Az. Time Alt. Az.
21 Feb 9.1 17:15:40 10° NNE 17:48:02 19° NE 17:59:42 10° E visible
22 Feb 9.1 17:11:46 10° NNE 17:45:49 20° NE 17:57:39 10° E visible
23 Feb 9.0 17:07:54 10° NNE 17:43:35 21° NE 17:55:33 10° E visible
24 Feb 9.0 17:04:02 10° NNE 17:41:21 22° NE 17:53:25 10° E visible
25 Feb 9.0 17:00:10 10° N 17:39:05 22° NE 17:51:16 10° E visible
26 Feb 8.9 16:56:20 10° N 17:36:49 23° NE 17:49:06 10° E visible
27 Feb 8.9 16:52:29 10° N 17:34:32 24° NE 17:46:53 10° E visible
